Regional Weather Roundup
Issued by NWS

Home | Current Version | Previous Version | Text Only | Print | Product List | Glossary On
Versions: 1 2 3 4 5 6 7 8 9 10 11 12 13 14 15 16 17 18 19 20 21 22 23 24 25 26 27 28 29 30 31 32 33 34 35 36 37 38 39 40 41 42 43 44 45 46 47 48 49 50
022
ASUS43 KMKX 250021
RWRWI

WISCONSIN REGIONAL WEATHER ROUNDUP
NATIONAL WEATHER SERVICE MILWAUKEE/SULLIVAN WI
700 PM CDT SUN SEP 24 2017

NOTE: "FAIR" INDICATES FEW OR NO CLOUDS BELOW 12,000 FEET WITH NO
SIGNIFICANT WEATHER AND/OR OBSTRUCTIONS TO VISIBILITY.

WIZ001-002-006>008-014>016-023>028-250100-
NORTHWEST WISCONSIN

CITY           SKY/WX    TMP DP  RH WIND       PRES   REMARKS
SUPERIOR ARPT  PTCLDY    64  64  99 CALM      29.84R FOG
6HR MIN TEMP:  64; 6HR MAX TEMP:  70; 6HR PCP:  0.26;

ASHLAND        CLEAR     78  63  59 S6        29.87S HX  80
6HR MIN TEMP:  78; 6HR MAX TEMP:  89;

HAYWARD        CLEAR     77  64  64 SE6       29.89F
6HR MIN TEMP:  77; 6HR MAX TEMP:  85;

SIREN          CLEAR     80  64  57 S6        29.86S HX  81
6HR MIN TEMP:  80; 6HR MAX TEMP:  87;

CUMBERLAND     CLEAR     75  63  64 S7        29.89F
RICE LAKE      CLEAR     78  63  60 SE7       29.91S HX  80
6HR MIN TEMP:  78; 6HR MAX TEMP:  87;

CHETEK         CLEAR     78  65  64 SE8       29.90S HX  80
6HR MIN TEMP:  78; 6HR MAX TEMP:  86;

LADYSMITH      CLEAR     79  62  55 SE6       29.93F HX  80
6HR MIN TEMP:  79; 6HR MAX TEMP:  86;

EAU CLAIRE     CLEAR     82  62  50 SE9       29.89F HX  83
6HR MIN TEMP:  82; 6HR MAX TEMP:  88;

MENOMONIE      CLEAR     80  64  57 SE8       29.89S HX  81
6HR MIN TEMP:  80; 6HR MAX TEMP:  88;

NEW RICHMOND   CLEAR     80  62  54 SE6       29.87S HX  81
6HR MIN TEMP:  80; 6HR MAX TEMP:  89;

OSCEOLA        CLEAR     80  62  53 SE7       29.88S HX  81
$$

WIZ003>005-009-010-017-018-250100-
NORTH CENTRAL WISCONSIN

CITY           SKY/WX    TMP DP  RH WIND       PRES   REMARKS
MANITOWISH WTR NOT AVBL
ARBOR VITAE    CLEAR     77  60  56 S7        29.97F
6HR MIN TEMP:  77; 6HR MAX TEMP:  86;

WOODRUFF       CLEAR     77  60  56 S7        29.97F
6HR MIN TEMP:  77; 6HR MAX TEMP:  86;

RHINELANDER    CLEAR     77  59  53 S3        29.99F
6HR MIN TEMP:  77; 6HR MAX TEMP:  87;

EAGLE RIVER    CLEAR     76  58  53 CALM      29.98S
6HR MIN TEMP:  76; 6HR MAX TEMP:  86;

LAND O LAKES   CLEAR     75  60  58 SE3       30.00S
6HR MIN TEMP:  75; 6HR MAX TEMP:  87;

PHILLIPS       CLEAR     73  61  66 SE5       29.94F
6HR MIN TEMP:  75; 6HR MAX TEMP:  85;

TOMAHAWK       CLEAR     71  60  67 CALM      29.98S
6HR MIN TEMP:  71; 6HR MAX TEMP:  86;

MEDFORD        CLEAR     73  60  63 S6        29.96F
6HR MIN TEMP:  73; 6HR MAX TEMP:  86;

MERRILL        CLEAR     79  58  48 S3        29.98S HX  80
6HR MIN TEMP:  79; 6HR MAX TEMP:  88;

$$

WIZ029-030-035-036-043>047-250100-
CENTRAL WISCONSIN

CITY           SKY/WX    TMP DP  RH WIND       PRES   REMARKS
WAUSAU         CLEAR     79  60  52 SE8       29.95F HX  80
6HR MIN TEMP:  79; 6HR MAX TEMP:  87;

MOSINEE        PTCLDY    77  61  57 SE5       29.98F
MARSHFIELD     CLEAR     78  60  53 S5        29.97R
6HR MIN TEMP:  78; 6HR MAX TEMP:  88;

STEVENS POINT  CLEAR     77  60  56 SE6       29.98S
6HR MIN TEMP:  77; 6HR MAX TEMP:  87;

WAUPACA        CLEAR     80  62  54 SE5       29.98S HX  81
6HR MIN TEMP:  80; 6HR MAX TEMP:  91;

WAUTOMA        CLEAR     76  65  68 SE3       29.98S
6HR MIN TEMP:  76; 6HR MAX TEMP:  90;

WISC RAPIDS    CLEAR     80  61  52 S3        29.97F HX  81
6HR MIN TEMP:  80; 6HR MAX TEMP:  90;

CAMP DOUGLAS   CLEAR     80  61  52 CALM      29.96S HX  81
6HR MIN TEMP:  80; 6HR MAX TEMP:  90;

$$

WIZ011>013-019>022-031-037>040-048>050-250100-
NORTHEAST WISCONSIN

CITY           SKY/WX    TMP DP  RH WIND       PRES   REMARKS
ANTIGO         CLEAR     72  64  74 S6        30.01S
6HR MIN TEMP:  72; 6HR MAX TEMP:  85;

SHAWANO        CLEAR     79  64  60 CALM      29.98S HX  81
6HR MIN TEMP:  79; 6HR MAX TEMP:  91;

OCONTO         CLEAR     77  66  68 S8        29.99S
6HR MIN TEMP:  77; 6HR MAX TEMP:  89;

STURGEON BAY   CLEAR     73  64  73 S8        30.01F
6HR MIN TEMP:  73; 6HR MAX TEMP:  87;

GREEN BAY      CLEAR     79  67  66 S8        29.99S HX  81
6HR MIN TEMP:  79; 6HR MAX TEMP:  90;

MANITOWOC      NOT AVBL
APPLETON       PTCLDY    79  57  47 VRB5      29.98F HX  80
CLINTONVILLE   CLEAR     79  63  57 S5        29.98S HX  80
OSHKOSH        CLEAR     79  66  64 SE8       29.99S HX  81
6HR MIN TEMP:  78; 6HR MAX TEMP:  88;

$$

WIZ032>034-041-042-053>061-250100-
SOUTHWEST WISCONSIN

CITY           SKY/WX    TMP DP  RH WIND       PRES   REMARKS
LA CROSSE      CLEAR     85  63  47 SE7       29.91S HX  86
6HR MIN TEMP:  85; 6HR MAX TEMP:  93;

SPARTA         CLEAR     80  62  54 SE5       29.95S HX  81
6HR MIN TEMP:  80; 6HR MAX TEMP:  89;

VIROQUA        CLEAR     78  64  60 SE6       29.97S HX  80
6HR MIN TEMP:  78; 6HR MAX TEMP:  89;

BOSCOBEL       CLEAR     83  63  50 VRB3      29.95S HX  84
6HR MIN TEMP:  83; 6HR MAX TEMP:  93;

PRAIRIE DU CHI CLEAR     84  59  43 SE5       29.93S HX  83
6HR MIN TEMP:  84; 6HR MAX TEMP:  90;

PLATTEVILLE    CLEAR     79  63  56 SE6       29.98S HX  81
6HR MIN TEMP:  79; 6HR MAX TEMP:  89;

$$

WIZ056-057-062-063-064-067-068-250100-
SOUTH CENTRAL WISCONSIN

CITY           SKY/WX    TMP DP  RH WIND       PRES   REMARKS
REEDSBURG      CLEAR     79  61  53 CALM      29.97S HX  80
6HR MIN TEMP:  79; 6HR MAX TEMP:  90;

BARABOO/DELLS  CLEAR     77  58  52 SE6       29.97F
6HR MIN TEMP:  77; 6HR MAX TEMP:  89;

LONE ROCK      CLEAR     81  62  52 SE3       29.96S HX  82
6HR MIN TEMP:  81; 6HR MAX TEMP:  90;

MINERAL POINT  CLEAR     79  61  53 SE3       29.99S HX  80
MADISON        CLEAR     82  60  47 S5        29.98S HX  82
6HR MIN TEMP:  82; 6HR MAX TEMP:  89;

MIDDLETON      CLEAR     82  58  43 CALM      29.99F HX  82
6HR MIN TEMP:  82; 6HR MAX TEMP:  91;

WATERTOWN      CLEAR     78  61  55 SE3       29.99S HX  80
6HR MIN TEMP:  78; 6HR MAX TEMP:  89;

MONROE         CLEAR     81  59  47 SE6       29.99F HX  81
JANESVILLE     CLEAR     84  55  37 S8        29.99S HX  83
$$

WIZ051-052-058>065-066-070>072-250100-
SOUTHEAST WISCONSIN

CITY           SKY/WX    TMP DP  RH WIND       PRES   REMARKS
MILWAUKEE      PTCLDY    81  60  48 S7        30.01S HX  82
6HR MIN TEMP:  80; 6HR MAX TEMP:  90;

WAUKESHA       CLEAR     79  57  47 SE12      30.03R HX  80
MILWAUKEE/TIMM CLEAR     81  55  41 S6        30.02S HX  80
RACINE         CLEAR     79  62  56 S7        30.03S HX  80
6HR MIN TEMP:  79; 6HR MAX TEMP:  88;

BURLINGTON     CLEAR     77  63  61 SE6       30.01S
6HR MIN TEMP:  77; 6HR MAX TEMP:  92;

KENOSHA        CLEAR     79  61  53 SE6       30.02S HX  80
6HR MIN TEMP:  79; 6HR MAX TEMP:  92;

FOND DU LAC    CLEAR     80  63  55 SE7       29.99F HX  81
6HR MIN TEMP:  80; 6HR MAX TEMP:  89;

SHEBOYGAN      CLEAR     75  66  73 S6        30.01S
6HR MIN TEMP:  75; 6HR MAX TEMP:  89;

WEST BEND        N/A     77  59  53 SE5       30.02S
JUNEAU         CLEAR     79  62  56 SE5       30.01S HX  80
6HR MIN TEMP:  79; 6HR MAX TEMP:  87;

$$

LSZ147-162-250100-
LAKE SUPERIOR

STATION/POSITION TIME  TEMP    WIND        PRES    WAVE
                       AIR SEA DIR/SP/G            HT/PER
                 (UTC) (F)     (DEG/KT/KT) (MB)    (FT/S)
W MID LAKE BUOY  2350   64 57  150/  8/ 10 1010.9F   0
DEVILS ISLAND    0000   78     160/ 10/ 12 1010.3F
SAXON HARBOR     2330   75     170/  1/  3 1011.2F
$$

LMZ867-665-643>646-250100-
LAKE MICHIGAN

STATION/POSITION TIME  TEMP    WIND        PRES    WAVE
                       AIR SEA DIR/SP/G            HT/PER
                 (UTC) (F)     (DEG/KT/KT) (MB)    (FT/S)
S GREEN BAY BUOY 0000   76 71  170/ 10/ 12 1015.3
N MID LAKE BUOY  2350   69 67  180/  8/  8 1016.6S   1/ 3
N



USA.gov is the U.S. government's official web portal to all federal, state and local government web resources and services.